Location: The Jewett Observatory
(46.7288°N, 117.1525°W)
Time: 20:32:52
(UTC-08:00)

Daily predictions for brighter satellites

Satellite Brightness Start Highest point End
(mag) Time Altitude Azimuth Time Altitude Azimuth Time Altitude Azimuth
Cosmos 44 Rocket 3.6 17:44:31 10° NW 17:49:17 73° WSW 17:53:57 10° SSE
Cosmos 1378 Rocket 4.0 17:45:04 10° NNW 17:49:22 68° W 17:53:37 10° S
Cosmos 1825 4.4 17:46:07 10° SW 17:49:31 30° WNW 17:52:57 10° N
Tiangong 2 2.3 17:47:55 10° WSW 17:50:46 35° S 17:53:38 10° ESE
CZ-4 R/B 3.7 17:47:56 10° SSW 17:51:36 31° W 17:55:22 10° NNW
Nadezhda 1 Rocket 4.0 17:45:52 10° N 17:51:54 58° ENE 17:57:51 10° SSE
Cosmos 2360 Rocket 3.1 17:48:28 10° N 17:53:23 29° NE 17:58:16 10° ESE
Cosmos 1980 Rocket 3.2 17:48:54 10° NW 17:54:25 54° WSW 17:59:56 10° S
Resurs 01 Rocket 2.8 17:52:27 10° ESE 17:55:50 22° ENE 17:59:14 10° NNE
Cosmos 2219 Rocket 4.1 17:53:58 10° N 17:56:07 12° NE 17:58:17 10° ENE
METEOR-M 4.2 17:51:42 10° SSE 17:56:54 56° ENE 18:02:07 10° N
NOAA 12 4.2 17:51:46 10° SSE 17:56:57 57° ENE 18:02:11 10° N
DNEPR-1 R/B 3.5 17:52:43 10° NNW 17:57:03 62° NE 18:01:13 10° SE
YAOGAN 1 4.3 17:54:21 10° SSW 17:58:24 39° W 18:02:29 10° NNW
Cosmos 1908 Rocket 4.2 17:54:45 10° SSW 17:59:04 62° WNW 18:03:28 10° N
Cosmos 1782 Rocket 3.6 17:59:47 10° S 18:04:13 89° ESE 18:08:43 10° N
CENTAUR R/B 3.8 17:58:03 10° NW 18:05:43 60° WSW 18:13:53 10° SSE
BREEZE-M DEB (TANK) 1.6 18:03:37 10° WNW 18:05:47 67° NNE 18:09:26 10° E
HJ-1C 4.4 18:03:37 10° SE 18:06:28 25° ENE 18:09:19 10° NNE
ATLAS CENTAUR R/B 3.4 18:03:34 10° W 18:07:27 27° NW 18:11:07 10° NNE
Cosmos 1633 3.9 18:10:41 10° SE 18:13:20 19° E 18:16:01 10° NE
Cosmos 44 3.5 18:08:54 10° NW 18:13:21 65° WSW 18:17:37 10° SSE
Meteor 1-18 Rocket 4.2 18:08:26 10° N 18:14:01 82° ENE 18:19:38 10° SSE
COSMO-SKYMED 1 2.8 18:09:42 10° N 18:14:04 78° WNW 18:18:24 10° SSW
SJ-6B 2.9 18:12:00 10° SSE 18:15:58 58° ENE 18:19:51 10° N
ASTRO F (AKARI) 4.5 18:13:25 10° NNE 18:17:08 77° ESE 18:20:37 10° S
Cosmos 2333 Rocket 4.0 18:14:56 10° N 18:18:00 14° NE 18:20:34 11° ENE
Okean 2 Rocket 3.2 18:15:41 10° S 18:20:09 84° W 18:24:37 10° N
Resurs 1-3 4.4 18:16:52 10° SE 18:20:44 31° ENE 18:24:37 10° N
NOSS 2-2 (E) 3.8 18:17:44 10° SW 18:21:53 75° NW 18:26:54 10° NE
BREEZE-M DEB (TANK) 4.5 18:13:34 10° WNW 18:24:47 55° SW 18:28:10 10° SE
Cosmos 2082 Rocket 4.1 18:19:53 10° WSW 18:24:47 29° NW 18:29:43 10° N
SL-16 R/B 2.4 18:20:38 10° NNW 18:26:20 79° WSW 18:31:59 10° SSE
FengYun 1-2 T 4.3 18:22:30 10° SSE 18:27:51 57° ENE 18:33:14 10° N
Cosmos 1709 Rocket 4.1 18:22:36 10° SSE 18:28:35 50° E 18:34:29 10° NNE
Cosmos 1340 2.9 18:27:59 10° N 18:31:41 46° ENE 18:35:19 10° SSE
USA 215 4.2 18:26:45 10° NE 18:32:45 40° NNW 18:38:43 10° WNW
Cosmos 1461 3.0 18:31:54 10° NW 18:35:53 72° SW 18:39:57 10° SSE
Meteor 1-28 Rocket 4.3 18:34:32 10° N 18:38:13 48° WNW 18:41:54 10° SSW
Cosmos 2151 Rocket 3.5 18:34:06 10° S 18:38:34 74° E 18:43:07 10° NNE
Meteor 1-20 Rocket 4.3 18:32:55 10° S 18:38:45 88° E 18:44:38 10° NNE
Cosmos 1818 3.8 18:36:06 10° SSW 18:41:19 49° ESE 18:46:10 12° NE
NOSS 2-2 (D) 4.1 18:38:05 10° SW 18:42:10 59° NW 18:47:06 10° NE
Okean 1 3.5 18:38:57 10° NNW 18:43:01 78° W 18:47:05 10° S
Meteor 1-13 Rocket 4.2 18:37:51 10° N 18:43:21 63° ENE 18:48:54 10° SSE
FREGAT/IRIS 3.3 18:40:22 10° S 18:43:25 57° W 18:46:29 10° NNW
Cosmos 2322 Rocket 2.9 18:39:23 10° NW 18:44:52 56° WSW 18:50:20 10° S
Genesis I 4.2 18:42:06 10° NNW 18:45:35 29° NE 18:46:33 26° ENE
Okean 1 Rocket 3.6 18:43:52 10° SSE 18:47:57 35° E 18:52:03 10° NNE
Cosmos 2292 Rocket 4.2 18:44:44 10° S 18:49:44 80° E 18:56:33 10° N
Helios 1A 3.4 18:48:26 22° SE 18:50:39 39° ENE 18:54:32 10° N
CZ-2D R/B 3.5 18:48:12 18° SE 18:50:45 45° ENE 18:54:25 10° N
Cosmos 2322 3.7 18:50:18 10° NNW 18:56:02 68° ENE 19:00:58 14° SE
Cosmos 1570 Rocket 4.2 18:54:42 10° NNW 18:59:46 47° ENE 19:02:11 28° ESE
Okean 1-7 Rocket 3.8 18:55:35 10° N 19:00:00 47° ENE 19:02:21 25° SE
ALOS 2.5 18:55:34 10° S 19:00:13 74° WSW 19:04:55 10° NNW
Cosmos 407 Rocket 3.6 18:55:17 10° SSW 19:00:31 80° WNW 19:05:53 10° NNE
Cosmos 676 Rocket 3.9 18:56:20 10° SSW 19:01:30 76° ESE 19:06:44 10° NNE
H-2A R/B 2.5 18:58:08 10° SSE 19:01:50 80° ENE 19:05:36 10° N
Cosmos 807 4.5 19:00:26 10° N 19:03:49 79° E 19:07:57 10° S
Spot 1 3.9 19:02:43 26° SE 19:04:47 58° ENE 19:08:51 10° N
FENGYUN 3A 3.9 19:02:21 10° S 19:07:44 70° WSW 19:13:10 10° NNW
Meteor 2-4 Rocket 3.6 19:02:18 10° N 19:07:54 63° ENE 19:13:14 10° SSE
COSMOS 2428 3.0 19:02:26 10° NNW 19:07:57 48° ENE 19:09:59 34° ESE
Cosmos 2237 4.3 19:02:59 10° NNW 19:08:41 59° ENE 19:11:31 29° SE
Helios 1B rocket 4.3 19:15:09 17° SSE 19:15:09 17° SSE 19:16:13 10° S
Cosmos 1238 Rocket 2.6 19:09:32 10° NNW 19:12:38 60° W 19:14:27 20° S
SAR-Lupe-1 3.9 19:16:29 61° SE 19:17:02 80° ENE 19:20:38 10° NNW
Cosmos 1025 Rocket 3.1 19:13:29 10° N 19:17:47 53° ENE 19:17:56 52° E
Cosmos 2237 Rocket 3.4 19:15:12 10° N 19:19:50 25° NE 19:19:50 25° NE
Meteor 1-11 Rocket 3.7 19:15:11 10° S 19:20:57 83° E 19:26:54 10° NNE
SAR-Lupe-4 3.6 19:20:06 37° S 19:21:24 77° WSW 19:24:59 10° NNW
Cosmos 2208 Rocket 4.0 19:17:24 10° NNW 19:22:52 67° ENE 19:24:48 40° SE
Tiangong 2 3.5 19:24:46 10° WSW 19:26:41 16° SSW 19:26:41 16° SSW
Cosmos 1140 Rocket 3.3 19:23:02 10° SSW 19:28:10 79° ESE 19:33:21 10° NNE
Resurs 01 Rocket 2.8 19:27:51 10° S 19:32:03 43° W 19:36:17 10° NNW
Intercosmos 24 4.2 19:32:23 61° SE 19:32:50 64° E 19:38:39 10° NNE
Spot 2 Rocket 4.4 19:29:32 10° S 19:34:25 49° W 19:39:21 10° NNW
Cosmos 2219 4.0 19:30:08 10° S 19:33:37 33° SSE 19:33:37 33° SSE
GEOS 3 Rocket 4.0 19:33:43 19° NNE 19:37:29 64° NW 19:42:41 10° SW
Cosmos 2360 Rocket 2.8 19:32:11 10° NW 19:37:41 54° WSW 19:42:30 14° S
Cosmos 2219 Rocket 2.4 19:36:06 10° NNW 19:41:19 49° NE 19:41:19 49° NE
Cosmos 614 Rocket 3.7 19:37:32 10° SSW 19:42:37 80° ESE 19:43:41 56° NE
Cosmos 1850 Rocket 3.9 19:37:51 10° S 19:43:05 69° ESE 19:43:05 69° ESE
Cosmos 1610 Rocket 4.4 19:45:50 58° ESE 19:46:09 59° E 19:52:14 10° NNE
NOSS 0 Rocket 4.2 19:40:50 10° NNW 19:46:47 49° NE 19:46:47 49° NE
Cosmos 1633 4.5 19:44:49 10° SW 19:48:08 31° WNW 19:51:28 10° N
USA 186 4.4 19:51:15 16° NNW 19:51:15 16° NNW 19:52:00 10° NNW
Envisat 2.8 19:50:34 80° ENE 19:50:34 80° ENE 19:55:36 10° NNW
SL-16 R/B 3.9 19:46:42 10° N 19:49:37 19° NNE 19:49:37 19° NNE
SL-08 ROCKET BODY 4.5 19:45:57 10° S 19:52:08 81° W 19:58:22 10° N
Cosmos 2327 Rocket 4.4 19:47:09 10° S 19:53:22 88° E 19:59:44 10° N
H-2A R/B 4.3 19:58:07 13° NNE 19:58:07 13° NNE 19:58:53 10° NNE
USA 229 DEB 3.7 19:54:00 10° NW 20:01:10 85° NE 20:02:29 63° SE
USA 229 3.7 19:54:06 10° NW 20:01:15 84° NE 20:02:34 63° SE
Cosmos 2333 Rocket 2.6 19:57:52 10° NNW 20:02:36 52° NNE 20:02:36 52° NNE
ERS-1 Rocket 3.9 20:05:39 39° N 20:05:39 39° N 20:08:53 10° N
Cosmos 2184 Rocket 4.3 20:05:57 10° SSW 20:12:14 67° W 20:18:30 10° N
Cosmos 2074 Rocket 4.3 20:06:21 10° SSW 20:12:32 64° WNW 20:18:48 10° N
NOSS 3-1 (A) 4.3 20:06:37 10° NW 20:13:40 48° NE 20:13:54 48° NE
USA 215 4.1 20:13:45 35° NNE 20:14:52 38° N 20:20:47 10° NW
Cosmos 1980 4.5 20:12:18 10° NNW 20:16:13 42° N 20:16:13 42° N
ATLAS 2AS CENTAUR R/B 4.2 20:12:02 10° NW 20:18:56 29° NNE 20:20:09 28° NE
Nadezhda 3 Rocket 4.1 20:24:32 10° NNW 20:29:55 67° NW 20:29:55 67° NW
NOSS 3-1 (C) 4.0 20:27:45 10° NW 20:34:41 68° NNE 20:34:41 68° NNE
COSMOS 2428 4.2 20:47:07 10° NW 20:52:00 30° WSW 20:52:04 30° WSW
Cosmos 2237 Rocket 3.8 20:58:46 10° NNW 21:01:40 31° NW 21:01:40 31° NW
Cosmos 2219 Rocket 4.3 21:20:30 10° NW 21:23:05 22° WNW 21:23:05 22° WNW
ATLAS 2AS CENTAUR R/B 4.4 22:03:27 10° NW 22:07:36 33° NNW 22:07:36 33° NNW
